FJI1516 YSSY-NZAA

Flight info

Callsign FJI1516
Flight time N/A
Altitude 41000
Route EVONN L521 LUNBI
Aircraft A359/H-SDE2E3GHIJ3J4J5LM1ORWXY/LB1D1

Departure

Time 2026-05-07 14:30
Airport Sydney Kingsford Smith International Airport (YSSY)

Arrival

Time N/A
Airport Auckland International Airport (NZAA)
Time Latitude Longitude Altitude Speed Heading
2026-05-07 14:05 -33.93478 151.16797 36 ft 0 kts 258°
2026-05-07 14:17 -33.93476 151.16811 36 ft 4 kts 264°
2026-05-07 14:18 -33.93477 151.16842 35 ft 4 kts 282°
2026-05-07 14:18 -33.93481 151.16873 34 ft 4 kts 252°
2026-05-07 14:18 -33.93470 151.16895 33 ft 4 kts 216°
2026-05-07 14:18 -33.93446 151.16906 34 ft 4 kts 176°
2026-05-07 14:19 -33.93432 151.16904 35 ft 0 kts 167°
2026-05-07 14:19 -33.93445 151.16907 35 ft 0 kts 167°
2026-05-07 14:19 -33.93446 151.16907 35 ft 0 kts 167°
2026-05-07 14:23 -33.93464 151.16913 36 ft 8 kts 163°
2026-05-07 14:23 -33.93507 151.16963 36 ft 10 kts 111°
2026-05-07 14:23 -33.93500 151.17054 36 ft 9 kts 82°
2026-05-07 14:24 -33.93539 151.17113 35 ft 11 kts 161°
2026-05-07 14:24 -33.93623 151.17135 35 ft 14 kts 169°
2026-05-07 14:24 -33.93727 151.17160 35 ft 17 kts 168°
2026-05-07 14:24 -33.93849 151.17193 35 ft 19 kts 167°
2026-05-07 14:25 -33.93987 151.17229 35 ft 21 kts 168°
2026-05-07 14:25 -33.94140 151.17269 35 ft 24 kts 167°
2026-05-07 14:25 -33.94308 151.17312 36 ft 25 kts 168°
2026-05-07 14:25 -33.94481 151.17356 37 ft 27 kts 168°
2026-05-07 14:26 -33.94659 151.17401 37 ft 23 kts 169°
2026-05-07 14:26 -33.94820 151.17444 36 ft 25 kts 168°
2026-05-07 14:26 -33.94996 151.17489 36 ft 27 kts 167°
2026-05-07 14:26 -33.95184 151.17539 35 ft 28 kts 168°
2026-05-07 14:27 -33.95382 151.17591 36 ft 30 kts 168°
2026-05-07 14:27 -33.95590 151.17645 36 ft 31 kts 168°
2026-05-07 14:27 -33.95806 151.17701 36 ft 32 kts 167°
2026-05-07 14:27 -33.96031 151.17758 36 ft 34 kts 167°
2026-05-07 14:28 -33.96263 151.17820 36 ft 35 kts 168°
2026-05-07 14:28 -33.96414 151.17874 36 ft 13 kts 138°
2026-05-07 14:28 -33.96426 151.17974 36 ft 12 kts 80°
2026-05-07 14:28 -33.96393 151.18044 36 ft 9 kts 32°
2026-05-07 14:29 -33.96343 151.18042 36 ft 0 kts 349°
2026-05-07 14:29 -33.96270 151.18023 35 ft 42 kts 348°
2026-05-07 14:30 -33.95736 151.17884 35 ft 113 kts 347°
2026-05-07 14:30 -33.94779 151.17633 60 ft 168 kts 346°
2026-05-07 14:30 -33.93641 151.17398 878 ft 161 kts 346°
2026-05-07 14:30 -33.92496 151.17202 1485 ft 178 kts 346°
2026-05-07 14:31 -33.91175 151.16964 1789 ft 205 kts 344°
2026-05-07 14:31 -33.89672 151.16728 2171 ft 233 kts 354°
2026-05-07 14:31 -33.88005 151.17248 2497 ft 269 kts 31°
2026-05-07 14:31 -33.86744 151.18986 2974 ft 284 kts 72°
2026-05-07 14:32 -33.86541 151.21257 3917 ft 267 kts 108°
2026-05-07 14:32 -33.87210 151.23256 4940 ft 254 kts 126°
2026-05-07 14:32 -33.88203 151.25026 5743 ft 258 kts 132°
2026-05-07 14:32 -33.89293 151.26795 6513 ft 268 kts 131°
2026-05-07 14:33 -33.90357 151.28664 7328 ft 273 kts 128°
2026-05-07 14:33 -33.91338 151.30639 8288 ft 277 kts 126°
2026-05-07 14:33 -33.92240 151.32675 9212 ft 282 kts 124°
2026-05-07 14:33 -33.93115 151.34817 10091 ft 290 kts 123°
2026-05-07 14:34 -33.93998 151.37063 10668 ft 307 kts 122°
2026-05-07 14:34 -33.94936 151.39470 11038 ft 329 kts 122°
2026-05-07 14:34 -33.95929 151.42029 11577 ft 343 kts 122°
2026-05-07 14:34 -33.96943 151.44665 12380 ft 349 kts 122°
2026-05-07 14:35 -33.97970 151.47337 13224 ft 354 kts 122°
2026-05-07 14:35 -33.99014 151.50044 14014 ft 359 kts 122°
2026-05-07 14:35 -34.00079 151.52793 14706 ft 365 kts 122°
2026-05-07 14:35 -34.01167 151.55591 15379 ft 371 kts 122°
2026-05-07 14:36 -34.02272 151.58430 16045 ft 377 kts 123°
2026-05-07 14:36 -34.03393 151.61310 16701 ft 383 kts 123°
2026-05-07 14:36 -34.04530 151.64234 17433 ft 388 kts 123°
2026-05-07 14:36 -34.05680 151.67195 18143 ft 392 kts 123°
2026-05-07 14:37 -34.06847 151.70204 18768 ft 399 kts 123°
2026-05-07 14:37 -34.09216 151.76317 19961 ft 410 kts 123°
2026-05-07 14:37 -34.10431 151.79456 20592 ft 415 kts 123°
2026-05-07 14:38 -34.11661 151.82640 21213 ft 421 kts 123°
2026-05-07 14:38 -34.12910 151.85875 21846 ft 426 kts 123°
2026-05-07 14:38 -34.14170 151.89142 22438 ft 432 kts 123°
2026-05-07 14:38 -34.15443 151.92448 23054 ft 437 kts 123°
2026-05-07 14:39 -34.16733 151.95799 23654 ft 443 kts 123°
2026-05-07 14:39 -34.18020 151.99147 24152 ft 447 kts 123°
2026-05-07 14:39 -34.19296 152.02608 24684 ft 454 kts 118°
2026-05-07 14:39 -34.20431 152.06199 25216 ft 459 kts 118°
2026-05-07 14:40 -34.21532 152.09845 25742 ft 464 kts 117°
2026-05-07 14:40 -34.22616 152.13539 26271 ft 468 kts 116°
2026-05-07 14:40 -34.23695 152.17269 26778 ft 472 kts 116°
2026-05-07 14:40 -34.24776 152.21026 27285 ft 475 kts 116°
2026-05-07 14:41 -34.25868 152.24814 27805 ft 479 kts 116°
2026-05-07 14:41 -34.26968 152.28630 28289 ft 483 kts 116°
2026-05-07 14:41 -34.27703 152.31177 28616 ft 485 kts 116°
2026-05-07 14:41 -34.28819 152.35044 29101 ft 489 kts 116°
2026-05-07 14:42 -34.29944 152.38941 29574 ft 493 kts 116°
2026-05-07 14:42 -34.31078 152.42869 30008 ft 497 kts 116°
2026-05-07 14:42 -34.32219 152.46830 30412 ft 500 kts 116°
2026-05-07 14:42 -34.33364 152.50815 30782 ft 504 kts 116°
2026-05-07 14:43 -34.34518 152.54836 31186 ft 506 kts 116°
2026-05-07 14:43 -34.35676 152.58878 31566 ft 509 kts 115°
2026-05-07 14:43 -34.36839 152.62941 31911 ft 512 kts 115°
2026-05-07 14:43 -34.38011 152.67039 32262 ft 515 kts 115°
2026-05-07 14:44 -34.39171 152.71102 32592 ft 518 kts 114°
2026-05-07 14:44 -34.40354 152.75249 32929 ft 521 kts 114°
2026-05-07 14:44 -34.41540 152.79412 33238 ft 524 kts 114°
2026-05-07 14:44 -34.42729 152.83594 33579 ft 526 kts 114°
2026-05-07 14:45 -34.43919 152.87791 33932 ft 528 kts 114°